Location: Karcze
(52.0945°N, 22.4786°E)
Time: 23:15:10
(UTC+00:00)

Transit 4A - Pass Details

Date: 05 August 2021
Orbit: 871 x 974 km, 66.8° (Epoch: 18 September)

Event Time Altitude Azimuth Distance (km) Brightness Sun altitude
Exits shadow 19:54:39 13° 112° (ESE) 2,286 9.4 -12.8°
Maximum altitude 19:55:28 14° 103° (ESE) 2,261 9.5 -12.9°
Drops below altitude 10° 19:58:17 10° 74° (ENE) 2,528 10.0 -13.1°
Sets 20:02:01 0° 50° (NE) 3,468 10.9 -13.5°
